Location: ????????
(60.5616°N, 46.8254°E)
Time: 15:54:23
(UTC+00:00)

Cosmos 1802 Rocket - Pass Details

Date: 18 February 2020
Orbit: 954 x 1012 km, 82.9° (Epoch: 07 April)

Event Time Altitude Azimuth Distance (km) Brightness Sun altitude
Rises 16:00:51 0° 199° (SSW) 3,678 7.2 -16.8°
Reaches altitude 10° 16:03:21 10° 201° (SSW) 2,742 6.5 -17.1°
Maximum altitude 16:09:39 74° 287° (WNW) 1,043 4.3 -17.9°
Drops below altitude 10° 16:16:05 10° 12° (NNE) 2,795 6.4 -18.6°
Sets 16:18:40 0° 15° (NNE) 3,754 7.0 -18.9°
